Weather in Sitovo

Russia / Tula Oblast     53°20′26″N   37°49′20″E
temp.,
°C
wind,
m/s
gust,
m/s
humid.,
%
clouds,
%
prec.,
mm/h
press.,
hPa
HPBL,
m
18 october, mon
mon1800:00+8w4761100 0.0 1015523
03:00+7wsw4863100 0.0 1014437
06:00+7wsw5106199 0.0 1013479
09:00+7wsw61072100 0.0 1013780
12:00+7wsw61070100 0.0 1013845
15:00+8wnw6971100 0.1 10131192
18:00+6wnw5108098 0.1 1014608
21:00+5wnw4981100 0.2 1015348
19 october, tue
tue1900:00+4w4981100 0.0 1015314
03:00+2wnw38875 0.0 1015236
06:00+1wnw38905 0.0 1016200
09:00+2nw588413 0.0 1017384
12:00+3nw5777100 0.0 1018836
15:00+4nw676399 0.1 10171180
18:00+3wnw6975100 0.1 1019760
21:00+1wnw51092100 0.1 1019538
20 october, wed
wed2000:00+2nw6975100 0.8 1020987
03:00+1nw697896 0.8 1021890
06:000nw587599 0.0 1023950
09:000nw458094 0.0 1024299
12:00+3w336289 0.0 1024706
15:00+4wsw454743 0.0 1024926
18:00+2ssw3754100 0.0 1023204
21:00+4ssw61152100 0.0 1021653
21 october, thu
thu2100:00+4ssw71653100 0.0 1017615
03:00+4ssw81881100 1.1 1015675
06:00+6sw91789100 1.0 1012610
09:00+7sw81780100 1.0 1011543
12:00+9sw91878100 0.0 1010587
15:00+12sw91971100 0.0 1008675
18:00+11sw91876100 0.0 1008600
21:00+11sw91876100 0.0 1007645
22 october, fri
fri2200:00+10sw91877100 0.0 1005651
03:00+10sw81778100 0.0 1004655
06:00+9sw8168180 0.0 1005510
09:00+9wsw714805 0.0 1006615
12:00+12wsw8137077 0.0 1007937
15:00+13wsw71262100 0.0 10081011
18:00+11wsw512717 0.0 1010427
21:00+9wsw4118235 0.0 1012254